Satellite-Ground Cal/Val Site Overpasses Predictions

Prediction of Satellite NPP Overpassing Cal/Val Site: Antarctic Dome C

Ground Cal/Val Site Location: Latitude: -75.10, Longitude: 123.35; Satellite-Ground Site NADIR distance within 100 km.

Table of predicted overpasses for the next 14.0 days since TLE Epoch: 1/21/2023
Interval Starting Time Ending Time Minimum Distance Time Minimum Distance (km)
1 01/21/2023 07:45:35 01/21/2023 07:45:56 01/21/2023 07:45:46 68.05
2 01/22/2023 07:26:44 01/22/2023 07:27:11 01/22/2023 07:26:57 39.97
3 01/24/2023 15:09:14 01/24/2023 15:09:17 01/24/2023 15:09:16 98.87
4 01/25/2023 14:50:11 01/25/2023 14:50:40 01/25/2023 14:50:26 12.67
5 01/27/2023 07:33:02 01/27/2023 07:33:31 01/27/2023 07:33:17 3.49
6 01/30/2023 14:56:30 01/30/2023 14:56:59 01/30/2023 14:56:44 24.03
7 01/31/2023 14:37:48 01/31/2023 14:38:04 01/31/2023 14:37:56 83.10
8 02/01/2023 07:39:21 02/01/2023 07:39:48 02/01/2023 07:39:34 32.60
